Location: ???? ???
(30.5005°N, 60.5936°E)
Time: 12:34:17
(UTC+00:00)

GPS 2-17 Rocket1 - Pass Details

Date: 07 June 2020
Orbit: 571 x 659 km, 20.3° (Epoch: 06 July)

Event Time Altitude Azimuth Distance (km) Brightness Sun altitude
Exits shadow 00:01:31 14° 217° (SW) 1,629 4.6 -10.7°
Maximum altitude 00:03:54 21° 178° (S) 1,309 4.4 -10.3°
Drops below altitude 10° 00:07:08 10° 129° (SE) 1,859 5.7 -9.7°
Sets 00:09:53 0° 113° (ESE) 2,764 6.9 -9.2°
